Time,TemperatureF,DewpointF,PressureIn,WindDirection,WindDirectionDegrees,WindSpeedMPH,WindSpeedGustMPH,Humidity,HourlyPrecipIn,Conditions,Clouds,dailyrainin,SoftwareType,DateUTC
2015-09-02 08:23:00,59.0,46.0,29.79,East,92,0.0,1.0,61,-99.99,,,-99.99,,2015-09-02 14:23:00,
2015-09-02 08:33:00,61.0,46.0,29.79,East,83,0.0,0.0,57,-99.99,,,-99.99,,2015-09-02 14:33:00,
2015-09-02 08:43:00,63.0,46.0,29.79,NNW,333,0.0,0.0,53,-99.99,,,-99.99,,2015-09-02 14:43:00,
2015-09-02 08:53:00,66.0,46.0,29.79,North,0,0.0,1.0,48,-99.99,,,-99.99,,2015-09-02 14:53:00,
2015-09-02 09:03:00,68.0,46.0,29.78,NNE,18,0.0,0.0,45,-99.99,,,-99.99,,2015-09-02 15:03:00,
2015-09-02 09:12:00,71.0,45.0,29.78,North,7,0.0,2.0,39,-99.99,,,-99.99,,2015-09-02 15:12:00,
2015-09-02 09:33:00,73.0,44.0,29.77,NW,325,2.0,3.0,36,-99.99,,,-99.99,,2015-09-02 15:33:00,
2015-09-02 09:43:00,74.0,45.0,29.77,NW,324,3.0,3.0,35,-99.99,,,-99.99,,2015-09-02 15:43:00,
2015-09-02 09:53:00,76.0,47.0,29.77,NNE,18,2.0,2.0,36,-99.99,,,-99.99,,2015-09-02 15:53:00,
2015-09-02 10:03:00,77.0,46.0,29.77,North,10,0.0,2.0,33,-99.99,,,-99.99,,2015-09-02 16:03:00,
2015-09-02 10:12:00,77.0,45.0,29.77,SSE,156,1.0,1.0,32,-99.99,,,-99.99,,2015-09-02 16:12:00,
2015-09-02 10:25:00,78.0,47.0,29.77,NNE,26,1.0,-999.0,34,-99.99,,,-99.99,,2015-09-02 16:25:00,
2015-09-02 10:33:00,79.0,46.0,29.76,East,96,2.0,2.0,31,-99.99,,,-99.99,,2015-09-02 16:33:00,
2015-09-02 10:43:00,80.0,46.0,29.76,NE,55,2.0,3.0,30,-99.99,,,-99.99,,2015-09-02 16:43:00,
2015-09-02 10:53:00,80.0,47.0,29.76,ENE,78,2.0,4.0,31,-99.99,,,-99.99,,2015-09-02 16:53:00,
2015-09-02 11:03:00,81.0,47.0,29.76,ENE,72,3.0,4.0,30,-99.99,,,-99.99,,2015-09-02 17:03:00,
2015-09-02 11:13:00,82.0,47.0,29.76,East,94,7.0,8.0,29,-99.99,,,-99.99,,2015-09-02 17:13:00,
2015-09-02 11:23:00,86.0,40.0,29.76,West,264,16.0,25.0,20,-99.99,,,-99.99,,2015-09-02 17:23:00,
2015-09-02 11:34:00,90.0,41.0,29.76,WSW,243,14.0,23.0,18,-99.99,,,-99.99,,2015-09-02 17:34:00,
2015-09-02 11:44:00,91.0,39.0,29.76,West,261,13.0,22.0,16,-99.99,,,-99.99,,2015-09-02 17:44:00,
2015-09-02 11:53:00,91.0,37.0,29.76,WSW,258,14.0,20.0,15,-99.99,,,-99.99,,2015-09-02 17:53:00,
2015-09-02 12:03:00,91.0,39.0,29.76,WSW,258,13.0,19.0,16,-99.99,,,-99.99,,2015-09-02 18:03:00,
2015-09-02 12:13:00,91.0,37.0,29.75,West,263,11.0,16.0,15,-99.99,,,-99.99,,2015-09-02 18:13:00,
2015-09-02 12:23:00,91.0,39.0,29.76,WSW,258,12.0,19.0,16,-99.99,,,-99.99,,2015-09-02 18:23:00,
2015-09-02 12:33:00,91.0,37.0,29.75,West,260,14.0,17.0,15,-99.99,,,-99.99,,2015-09-02 18:33:00,
2015-09-02 12:43:00,92.0,36.0,29.75,WSW,251,16.0,17.0,14,-99.99,,,-99.99,,2015-09-02 18:43:00,
2015-09-02 12:53:00,92.0,34.0,29.75,WSW,254,15.0,18.0,13,-99.99,,,-99.99,,2015-09-02 18:53:00,
2015-09-02 13:03:00,92.0,34.0,29.75,West,261,11.0,15.0,13,-99.99,,,-99.99,,2015-09-02 19:03:00,
2015-09-02 13:13:00,91.0,33.0,29.75,West,261,12.0,14.0,13,-99.99,,,-99.99,,2015-09-02 19:13:00,
2015-09-02 13:23:00,91.0,35.0,29.74,WSW,253,7.0,11.0,14,-99.99,,,-99.99,,2015-09-02 19:23:00,
2015-09-02 13:33:00,91.0,33.0,29.74,West,264,14.0,17.0,13,-99.99,,,-99.99,,2015-09-02 19:33:00,
2015-09-02 13:43:00,91.0,35.0,29.74,West,270,12.0,17.0,14,-99.99,,,-99.99,,2015-09-02 19:43:00,
2015-09-02 13:53:00,91.0,35.0,29.74,WNW,297,13.0,18.0,14,-99.99,,,-99.99,,2015-09-02 19:53:00,
2015-09-02 14:03:00,91.0,35.0,29.74,WNW,287,14.0,17.0,14,-99.99,,,-99.99,,2015-09-02 20:03:00,
2015-09-02 14:13:00,91.0,33.0,29.74,WNW,287,10.0,10.0,13,-99.99,,,-99.99,,2015-09-02 20:13:00,
2015-09-02 14:23:00,91.0,35.0,29.73,WNW,294,13.0,14.0,14,-99.99,,,-99.99,,2015-09-02 20:23:00,
2015-09-02 14:33:00,91.0,35.0,29.73,NW,309,9.0,10.0,14,-99.99,,,-99.99,,2015-09-02 20:33:00,
2015-09-02 14:43:00,91.0,37.0,29.73,West,263,8.0,10.0,15,-99.99,,,-99.99,,2015-09-02 20:43:00,
2015-09-02 14:53:00,91.0,35.0,29.73,NW,316,7.0,10.0,14,-99.99,,,-99.99,,2015-09-02 20:53:00,
2015-09-02 15:03:00,91.0,35.0,29.72,WSW,258,3.0,5.0,14,-99.99,,,-99.99,,2015-09-02 21:03:00,
2015-09-02 15:13:00,92.0,36.0,29.71,WNW,288,9.0,12.0,14,-99.99,,,-99.99,,2015-09-02 21:13:00,
2015-09-02 15:23:00,91.0,35.0,29.71,NW,308,9.0,11.0,14,-99.99,,,-99.99,,2015-09-02 21:23:00,
2015-09-02 15:33:00,92.0,36.0,29.70,NNW,327,8.0,12.0,14,-99.99,,,-99.99,,2015-09-02 21:33:00,
2015-09-02 15:44:00,92.0,32.0,29.70,NW,326,8.0,11.0,12,-99.99,,,-99.99,,2015-09-02 21:44:00,
2015-09-02 15:53:00,93.0,33.0,29.70,NW,317,9.0,10.0,12,-99.99,,,-99.99,,2015-09-02 21:53:00,
2015-09-02 16:03:00,94.0,36.0,29.69,NNW,345,5.0,10.0,13,-99.99,,,-99.99,,2015-09-02 22:03:00,
2015-09-02 16:12:00,94.0,34.0,29.69,NW,322,9.0,11.0,12,-99.99,,,-99.99,,2015-09-02 22:12:00,
2015-09-02 16:23:00,95.0,32.0,29.68,WNW,298,9.0,12.0,11,-99.99,,,-99.99,,2015-09-02 22:23:00,
2015-09-02 16:33:00,95.0,32.0,29.68,NW,307,6.0,10.0,11,-99.99,,,-99.99,,2015-09-02 22:33:00,
2015-09-02 16:43:00,95.0,32.0,29.68,NW,310,8.0,9.0,11,-99.99,,,-99.99,,2015-09-02 22:43:00,
2015-09-02 16:53:00,95.0,32.0,29.68,NW,306,11.0,16.0,11,-99.99,,,-99.99,,2015-09-02 22:53:00,
2015-09-02 17:03:00,94.0,31.0,29.67,WNW,282,8.0,10.0,11,-99.99,,,-99.99,,2015-09-02 23:03:00,
2015-09-02 17:13:00,94.0,29.0,29.67,WNW,282,5.0,7.0,10,-99.99,,,-99.99,,2015-09-02 23:13:00,
2015-09-02 17:23:00,94.0,29.0,29.67,NW,309,9.0,10.0,10,-99.99,,,-99.99,,2015-09-02 23:23:00,
2015-09-02 17:33:00,94.0,29.0,29.67,WNW,290,6.0,8.0,10,-99.99,,,-99.99,,2015-09-02 23:33:00,
2015-09-02 17:43:00,94.0,31.0,29.67,NW,318,5.0,6.0,11,-99.99,,,-99.99,,2015-09-02 23:43:00,
2015-09-02 17:53:00,95.0,32.0,29.67,NW,317,6.0,9.0,11,-99.99,,,-99.99,,2015-09-02 23:53:00,
2015-09-02 18:03:00,94.0,31.0,29.67,WNW,284,10.0,15.0,11,-99.99,,,-99.99,,2015-09-03 00:03:00,
2015-09-02 18:12:00,93.0,33.0,29.66,WNW,298,8.0,9.0,12,-99.99,,,-99.99,,2015-09-03 00:12:00,
2015-09-02 18:23:00,93.0,33.0,29.67,WNW,285,8.0,9.0,12,-99.99,,,-99.99,,2015-09-03 00:23:00,
2015-09-02 18:33:00,93.0,31.0,29.67,WNW,285,10.0,11.0,11,-99.99,,,-99.99,,2015-09-03 00:33:00,
2015-09-02 18:43:00,93.0,33.0,29.67,WNW,293,6.0,8.0,12,-99.99,,,-99.99,,2015-09-03 00:43:00,
2015-09-02 18:53:00,93.0,31.0,29.67,WNW,285,8.0,9.0,11,-99.99,,,-99.99,,2015-09-03 00:53:00,
2015-09-02 19:03:00,93.0,33.0,29.67,WNW,285,5.0,6.0,12,-99.99,,,-99.99,,2015-09-03 01:03:00,
2015-09-02 19:12:00,92.0,34.0,29.67,WNW,291,5.0,7.0,13,-99.99,,,-99.99,,2015-09-03 01:12:00,
2015-09-02 19:23:00,91.0,35.0,29.67,WNW,291,6.0,7.0,14,-99.99,,,-99.99,,2015-09-03 01:23:00,
2015-09-02 19:33:00,90.0,36.0,29.67,WNW,285,4.0,5.0,15,-99.99,,,-99.99,,2015-09-03 01:33:00,
2015-09-02 19:43:00,89.0,38.0,29.67,WNW,301,3.0,4.0,17,-99.99,,,-99.99,,2015-09-03 01:43:00,
2015-09-02 19:53:00,87.0,38.0,29.67,WNW,293,5.0,5.0,18,-99.99,,,-99.99,,2015-09-03 01:53:00,
2015-09-02 20:03:00,86.0,40.0,29.68,WNW,292,2.0,3.0,20,-99.99,,,-99.99,,2015-09-03 02:03:00,
2015-09-02 20:12:00,85.0,41.0,29.68,WNW,297,4.0,4.0,21,-99.99,,,-99.99,,2015-09-03 02:12:00,
2015-09-02 20:23:00,83.0,41.0,29.68,WNW,282,3.0,3.0,23,-99.99,,,-99.99,,2015-09-03 02:23:00,
2015-09-02 20:33:00,83.0,41.0,29.68,WNW,282,3.0,3.0,23,-99.99,,,-99.99,,2015-09-03 02:33:00,
2015-09-02 20:43:00,83.0,41.0,29.68,WNW,282,3.0,3.0,23,-99.99,,,-99.99,,2015-09-03 02:43:00,
2015-09-02 20:53:00,83.0,41.0,29.68,WNW,282,3.0,3.0,23,-99.99,,,-99.99,,2015-09-03 02:53:00,
2015-09-02 22:23:00,73.0,46.0,29.73,ENE,64,2.0,2.0,38,-99.99,,,-99.99,,2015-09-03 04:23:00,